Location: Cambridge (historical)
(38.6883°N, 119.0140°W)
Time: 12:15:37
(UTC+00:00)

Cosmos 1023 Rocket - Pass Details

Date: 29 October 2020
Orbit: 736 x 773 km, 74.1° (Epoch: 01 December)

Event Time Altitude Azimuth Distance (km) Brightness Sun altitude
Rises 13:34:53 0° 206° (SSW) 3,159 7.5 -9.5°
Reaches altitude 10° 13:37:15 10° 210° (SSW) 2,237 6.7 -9.0°
Maximum altitude 13:42:15 61° 290° (WNW) 834 4.4 -8.0°
Drops below altitude 10° 13:47:17 10° 11° (NNE) 2,248 6.9 -7.1°
Sets 13:49:41 0° 15° (NNE) 3,176 7.7 -6.6°
